TimeCST,TemperatureF,Dew PointF,Humidity,Sea Level PressureIn,VisibilityMPH,Wind Direction,Wind SpeedMPH,Gust SpeedMPH,PrecipitationIn,Events,Conditions,WindDirDegrees,DateUTC
12:52 AM,27.0,26.1,96,30.38,4.0,Calm,Calm,-,N/A,,Clear,0,2013-12-26 06:52:00
1:38 AM,27.0,25.0,92,30.34,2.5,WSW,4.6,-,N/A,,Clear,240,2013-12-26 07:38:00
1:52 AM,27.0,26.1,96,30.38,1.5,SW,3.5,-,N/A,,Clear,230,2013-12-26 07:52:00
1:57 AM,27.0,25.0,92,30.34,0.5,SW,3.5,-,N/A,Fog,Light Freezing Fog,220,2013-12-26 07:57:00
2:52 AM,27.0,25.0,92,30.38,0.5,SSW,4.6,-,N/A,Fog,Light Freezing Fog,210,2013-12-26 08:52:00
3:08 AM,25.0,24.1,96,30.34,0.2,SSW,3.5,-,N/A,Fog,Light Freezing Fog,200,2013-12-26 09:08:00
3:52 AM,19.9,19.0,96,30.38,0.5,South,4.6,-,N/A,Fog,Light Freezing Fog,180,2013-12-26 09:52:00
4:27 AM,21.9,19.9,92,30.33,0.2,South,4.6,-,N/A,Fog,Light Freezing Fog,170,2013-12-26 10:27:00
4:52 AM,21.9,21.0,96,30.38,0.2,SSE,5.8,-,N/A,Fog,Light Freezing Fog,160,2013-12-26 10:52:00
5:00 AM,21.0,19.9,96,30.33,0.5,South,5.8,-,N/A,Fog,Light Freezing Fog,170,2013-12-26 11:00:00
5:52 AM,21.0,19.0,92,30.39,0.8,SSE,5.8,-,N/A,,Mist,160,2013-12-26 11:52:00
6:52 AM,21.9,19.9,92,30.39,0.8,SSE,6.9,-,N/A,,Mist,160,2013-12-26 12:52:00
7:00 AM,21.0,19.0,92,30.35,2.0,South,4.6,-,N/A,,Overcast,170,2013-12-26 13:00:00
7:10 AM,21.0,19.0,92,30.35,3.0,SSE,5.8,-,N/A,,Overcast,160,2013-12-26 13:10:00
7:26 AM,19.9,17.1,89,30.35,5.0,SSE,4.6,-,N/A,,Scattered Clouds,160,2013-12-26 13:26:00
7:52 AM,21.9,19.0,89,30.40,3.0,SSE,8.1,-,N/A,,Clear,160,2013-12-26 13:52:00
8:11 AM,24.1,21.0,88,30.35,4.0,SSE,6.9,-,N/A,,Clear,160,2013-12-26 14:11:00
8:52 AM,26.1,24.1,92,30.40,3.0,South,5.8,-,N/A,,Clear,170,2013-12-26 14:52:00
9:52 AM,30.9,28.9,92,30.40,9.0,South,8.1,-,N/A,,Clear,180,2013-12-26 15:52:00
10:52 AM,36.0,30.9,82,30.40,10.0,South,9.2,-,N/A,,Clear,190,2013-12-26 16:52:00
11:52 AM,43.0,30.9,62,30.37,10.0,SSW,12.7,-,N/A,,Clear,200,2013-12-26 17:52:00
12:52 PM,45.0,28.0,52,30.34,10.0,South,17.3,-,N/A,,Clear,190,2013-12-26 18:52:00
1:52 PM,48.0,27.0,44,30.32,10.0,South,12.7,-,N/A,,Clear,190,2013-12-26 19:52:00
2:52 PM,48.9,25.0,39,30.30,10.0,SSW,11.5,-,N/A,,Clear,200,2013-12-26 20:52:00
3:52 PM,48.9,23.0,36,30.29,10.0,SSW,11.5,-,N/A,,Clear,200,2013-12-26 21:52:00
4:52 PM,42.1,23.0,47,30.30,10.0,South,8.1,-,N/A,,Clear,190,2013-12-26 22:52:00
5:52 PM,37.9,24.1,57,30.30,10.0,South,10.4,-,N/A,,Clear,180,2013-12-26 23:52:00
6:52 PM,37.0,24.1,59,30.32,10.0,SW,6.9,-,N/A,,Clear,220,2013-12-27 00:52:00
7:52 PM,35.1,25.0,67,30.33,10.0,SSW,9.2,-,N/A,,Clear,200,2013-12-27 01:52:00
8:52 PM,35.1,25.0,67,30.33,10.0,SSW,11.5,-,N/A,,Clear,200,2013-12-27 02:52:00
9:52 PM,33.1,24.1,70,30.35,10.0,SW,8.1,-,N/A,,Clear,220,2013-12-27 03:52:00
10:52 PM,32.0,24.1,73,30.35,10.0,SSW,8.1,-,N/A,,Clear,210,2013-12-27 04:52:00
11:52 PM,33.1,25.0,72,30.35,10.0,SSW,8.1,-,N/A,,Clear,200,2013-12-27 05:52:00